Thomson, IL (61285)

8:45 PM CDT on May 29, 2017 (GMT -0500)
Tri-Township | | Change Station
Active Advisory: Flood Warning

Elev 617 ft 42.05 °N, 90.11 °W | Updated 10 minutes ago

Partly Cloudy
Partly Cloudy
68 °F
Feels Like 68 °F
N
8
Wind Variable Wind from West

Today
High -- | Low -- °F
--% Chance of Precip.
Yesterday
High -- | Low -- °F
Precip. -- in
Pressure 29.88 in
Visibility 10.0 miles
Clouds Scattered Clouds 11000 ft
Dew Point 46 °F
Humidity 45%
Rainfall 0.00 in
Snow Depth Not available.
5:28 AM 8:27 PM
Waxing Crescent, 24% visible
METAR KSFY 300135Z AUTO 28007KT 10SM SCT110 20/08 A2988 RMK AO2 T01990076
Pressure 29.88 in
Visibility 10.0 miles
Clouds Scattered Clouds 11000 ft
Dew Point 46 °F
Humidity 45%
Rainfall 0.00 in
Snow Depth Not available.
5:28 AM 8:27 PM
Waxing Crescent, 24% visible
METAR KSFY 300135Z AUTO 28007KT 10SM SCT110 20/08 A2988 RMK AO2 T01990076

Get Your Daily Forecast Email!

Thanks for signing up!

Be on the lookout for a verification email in your inbox.

You'll start receiving severe weather alerts in your inbox..

×

10-Day Weather Forecast

Almanac

Astronomy

May. 29, 2017 Rise Set
Actual Time
Civil Twilight
Nautical Twilight
Astronomical Twilight
Moon
Length of Visible Light
Length of Day
Tomorrow will be .
, % of the Moon is Illuminated

Today's Extremes

State Highs State Lows

Community

WunderPhotos

Category 6

Welcome to Category 6. This is the collective home for Weather Underground's featured writeups by Dr. Jeff Masters (right), Bob Henson (left), Chris Burt, and other regular contributors.

Nearby

Air Quality

  Air Quality AQ Index Pollutant
Not available.

Snow Depth

Station Depth Elevation

Earthquake Activity

City Distance Mag. Time & Date
Minimum magnitude displayed is 2.5.

Coastal Water Temperatures

Place Temperature

Stations

Nearby Weather Stations

Station Location Temp. Windchill Dew Point Humidity Wind Precip. Elev Updated Type
                   

Watches & Warnings

Flood Warning
Issued: 8:36 PM CDT May. 29, 2017 – National Weather Service

... Flood Warning now in effect until Saturday evening...

The Flood Warning continues for
the Mississippi River at Fulton ld13.
* Until Saturday evening.
* At 8:00 PM Monday the stage was 16.5 feet... and rising.
* Flood stage is 16.0 feet.
* Minor flooding is occurring.
* Forecast... rise to 17.0 feet Wednesday morning. Fall below flood
stage Saturday.
* Impact... at 16.0 feet... water affects a few houses at Thomson.


Lat... Lon 4211 9012 4193 9008 4188 9012 4189 9020
      4208 9019